GW4712 Weather Reports


Display with metric or nautical units.
time (UTC)temp
F
wind
direction
speed
MPH
gust
MPH
rain 1hr
in
rain 24hr
in
rain mn
in
humidity
%
barometer
mb
20260901145955 83 187 0.0 0.0 0.00 0.00 0.00 82 1019.9
20260901145449 82 253 0.0 0.0 0.00 0.00 0.00 82 1019.9
20260901144949 82 180 0.0 0.0 0.00 0.00 0.00 84 1019.9
20260901144444 82 247 0.0 0.0 0.00 0.00 0.00 86 1020.0
20260901143940 82 301 0.0 0.0 0.00 0.00 0.00 83 1019.9
20260901143436 82 173 0.0 0.0 0.00 0.00 0.00 84 1020.1
20260901142932 82 176 0.0 0.0 0.00 0.00 0.00 85 1020.0
20260901142432 81 133 0.0 0.0 0.00 0.00 0.00 87 1020.2
20260901141926 81 133 0.0 0.0 0.00 0.00 0.00 87 1020.0
20260901141421 80 133 0.0 0.0 0.00 0.00 0.00 92 1020.1
20260901140921 80 134 0.0 0.0 0.00 0.00 0.00 91 1020.4
20260901140419 79 133 0.0 0.0 0.00 0.00 0.00 90 1020.3
20260901135914 79 134 0.0 0.0 0.00 0.00 0.00 92 1020.3
20260901135409 79 134 0.0 0.0 0.00 0.00 0.00 91 1020.2
20260901134905 79 134 0.0 0.0 0.00 0.00 0.00 91 1020.3
20260901134400 78 133 0.0 0.0 0.00 0.00 0.00 93 1020.4
20260901133854 78 133 0.0 0.0 0.00 0.00 0.00 94 1020.6
20260901133354 77 133 0.0 0.0 0.00 0.00 0.00 94 1020.7
20260901132852 77 134 0.0 0.0 0.00 0.00 0.00 95 1020.6
20260901132348 76 134 0.0 0.0 0.00 0.00 0.00 97 1020.7
20260901131847 76 134 0.0 0.0 0.00 0.00 0.00 98 1020.6
20260901131346 76 133 0.0 0.0 0.00 0.00 0.00 98 1020.6
20260901130841 75 133 0.0 0.0 0.00 0.00 0.00 99 1020.7
20260901130336 75 133 0.0 0.0 0.00 0.00 0.00 99 1020.8
20260901125834 75 134 0.0 0.0 0.00 0.00 0.00 98 1020.7
20260901125328 74 133 0.0 0.0 0.00 0.00 0.00 99 1020.7
20260901124823 72 133 0.0 0.0 0.00 0.00 0.00 99 1020.9
20260901124318 72 133 0.0 0.0 0.00 0.00 0.00 99 1020.9
20260901123817 71 133 0.0 0.0 0.00 0.00 0.00 99 1020.8
20260901123313 72 133 0.0 0.0 0.00 0.00 0.00 99 1020.7
20260901122812 71 134 0.0 0.0 0.00 0.00 0.00 99 1020.8
20260901122312 70 134 0.0 0.0 0.00 0.00 0.00 99 1020.5
20260901121811 70 134 0.0 0.0 0.00 0.00 0.00 99 1020.6
20260901121306 69 134 0.0 0.0 0.00 0.00 0.00 99 1020.6
20260901120801 69 134 0.0 0.0 0.00 0.00 0.00 99 1020.6
20260901120300 69 134 0.0 0.0 0.00 0.00 0.00 99 1020.6
20260901115756 69 134 0.0 0.0 0.00 0.00 0.00 99 1020.6
20260901115252 68 134 0.0 0.0 0.00 0.00 0.00 99 1020.3
20260901114749 68 134 0.0 0.0 0.00 0.00 0.00 99 1020.4
20260901114244 68 134 0.0 0.0 0.00 0.00 0.00 99 1020.3
20260901113742 68 134 0.0 0.0 0.00 0.00 0.00 99 1020.2
20260901113237 68 134 0.0 0.0 0.00 0.00 0.00 99 1020.3
20260901112732 68 134 0.0 0.0 0.00 0.00 0.00 99 1020.0
20260901112231 68 134 0.0 0.0 0.00 0.00 0.00 99 1020.0
20260901111726 68 134 0.0 0.0 0.00 0.00 0.00 99 1020.1
20260901111226 68 134 0.0 0.0 0.00 0.00 0.00 99 1020.1
20260901110719 68 134 0.0 0.0 0.00 0.00 0.00 99 1019.9
20260901110214 68 134 0.0 0.0 0.00 0.00 0.00 99 1019.9
20260901105711 68 134 0.0 0.0 0.00 0.00 0.00 99 1020.0
20260901105211 68 134 0.0 0.0 0.00 0.00 0.00 99 1019.8
20260901104707 68 134 0.0 0.0 0.00 0.00 0.00 99 1019.9
20260901104202 68 134 0.0 0.0 0.00 0.00 0.00 99 1019.9
20260901103701 68 134 0.0 0.0 0.00 0.00 0.00 99 1019.6
20260901103157 68 134 0.0 0.0 0.00 0.00 0.00 99 1019.7
20260901102652 68 134 0.0 0.0 0.00 0.00 0.00 99 1019.5
20260901102151 68 134 0.0 0.0 0.00 0.00 0.00 99 1019.7
20260901101648 68 134 0.0 0.0 0.00 0.00 0.00 99 1019.7
20260901101146 68 134 0.0 0.0 0.00 0.00 0.00 99 1019.6
20260901100640 68 134 0.0 0.0 0.00 0.00 0.00 99 1019.7
20260901100136 68 134 0.0 0.0 0.00 0.00 0.00 99 1019.6
20260901095633 68 134 0.0 0.0 0.00 0.00 0.00 99 1019.8
20260901095131 68 134 0.0 0.0 0.00 0.00 0.00 99 1019.5
20260901094626 68 134 0.0 0.0 0.00 0.00 0.00 99 1019.4
20260901094121 68 134 0.0 0.0 0.00 0.00 0.00 99 1019.4
20260901093616 68 134 0.0 0.0 0.00 0.00 0.00 99 1019.6
20260901093115 68 134 0.0 0.0 0.00 0.00 0.00 99 1019.7
20260901092612 68 134 0.0 0.0 0.00 0.00 0.00 99 1019.3
20260901092108 68 134 0.0 0.0 0.00 0.00 0.00 99 1019.3
20260901091603 68 134 0.0 0.0 0.00 0.00 0.00 99 1019.3
20260901091057 68 134 0.0 0.0 0.00 0.00 0.00 99 1019.2
20260901090556 68 134 0.0 0.0 0.00 0.00 0.00 99 1019.5
20260901090052 68 134 0.0 0.0 0.00 0.00 0.00 99 1019.3
20260901085548 68 134 0.0 0.0 0.00 0.00 0.00 99 1019.5
20260901085044 68 134 0.0 0.0 0.00 0.00 0.00 99 1019.3
20260901084540 68 134 0.0 0.0 0.00 0.00 0.00 99 1019.2
20260901084030 68 134 0.0 0.0 0.00 0.00 0.00 99 1019.4
20260901083524 68 134 0.0 0.0 0.00 0.00 0.00 99 1019.4
20260901083022 69 134 0.0 0.0 0.00 0.00 0.00 99 1019.4
20260901082517 69 134 0.0 0.0 0.00 0.00 0.00 99 1019.2
20260901082013 69 134 0.0 0.0 0.00 0.00 0.00 99 1019.5
20260901081507 69 134 0.0 0.0 0.00 0.00 0.00 99 1019.5
20260901081002 69 134 0.0 0.0 0.00 0.00 0.00 99 1019.4
20260901080501 69 134 0.0 0.0 0.00 0.00 0.00 99 1019.6
20260901075955 69 134 0.0 0.0 0.00 0.00 0.00 99 1019.4
20260901075452 69 134 0.0 0.0 0.00 0.00 0.00 99 1019.3
20260901074951 69 134 0.0 0.0 0.00 0.00 0.00 99 1019.2
20260901074450 69 134 0.0 0.0 0.00 0.00 0.00 99 1019.3
20260901073941 69 134 0.0 0.0 0.00 0.00 0.00 99 1019.3
20260901073437 69 134 0.0 0.0 0.00 0.00 0.00 99 1019.4
20260901072937 69 134 0.0 0.0 0.00 0.00 0.00 99 1019.4
20260901072432 69 134 0.0 0.0 0.00 0.00 0.00 99 1019.4
20260901071927 69 134 0.0 0.0 0.00 0.00 0.00 99 1019.4
20260901071425 69 134 0.0 0.0 0.00 0.00 0.00 99 1019.4
20260901070920 69 134 0.0 0.0 0.00 0.00 0.00 99 1019.5
20260901070415 69 134 0.0 0.0 0.00 0.00 0.00 99 1019.6
20260901065914 69 134 0.0 0.0 0.00 0.00 0.00 99 1019.5
20260901065409 69 134 0.0 0.0 0.00 0.00 0.00 99 1019.5
20260901064905 69 134 0.0 0.0 0.00 0.00 0.00 99 1019.5
20260901064401 69 134 0.0 0.0 0.00 0.00 0.00 99 1019.4
20260901063858 69 134 0.0 0.0 0.00 0.00 0.00 99 1019.5
20260901063354 69 134 0.0 0.0 0.00 0.00 0.00 99 1019.4
20260901062850 69 134 0.0 0.0 0.00 0.00 0.00 99 1019.4
20260901062346 70 134 0.0 0.0 0.00 0.00 0.00 99 1019.4
20260901061841 70 134 0.0 0.0 0.00 0.00 0.00 99 1019.5
20260901061336 70 134 0.0 0.0 0.00 0.00 0.00 99 1019.7
20260901060831 70 134 0.0 0.0 0.00 0.00 0.00 99 1019.5
20260901060327 70 134 0.0 0.0 0.00 0.00 0.00 99 1019.4
20260901055826 70 134 0.0 0.0 0.00 0.00 0.00 99 1019.4
20260901055323 70 134 0.0 0.0 0.00 0.00 0.00 99 1019.6
20260901054820 70 134 0.0 0.0 0.00 0.00 0.00 99 1019.5
20260901054317 70 134 0.0 0.0 0.00 0.00 0.00 99 1019.5
20260901053812 70 134 0.0 0.0 0.00 0.00 0.00 99 1019.4
20260901053307 70 134 0.0 0.0 0.00 0.00 0.00 99 1019.6
20260901052802 70 134 0.0 0.0 0.00 0.00 0.00 99 1019.6
20260901052258 70 134 0.0 0.0 0.00 0.00 0.00 99 1019.7
20260901051756 70 134 0.0 0.0 0.00 0.00 0.00 99 1019.6
20260901051252 70 134 0.0 0.0 0.00 0.00 0.00 99 1019.6
20260901050747 70 134 0.0 0.0 0.00 0.00 0.00 99 1019.6
20260901050242 70 134 0.0 0.0 0.00 0.00 0.00 99 1019.6
20260901045737 70 134 0.0 0.0 0.00 0.00 0.00 99 1019.4
20260901045232 70 134 0.0 0.0 0.00 0.00 0.00 99 1019.4
20260901044728 70 134 0.0 0.0 0.00 0.00 0.00 99 1019.6
20260901044224 70 134 0.0 0.0 0.00 0.00 0.00 99 1019.4
20260901043719 70 134 0.0 0.0 0.00 0.00 0.00 99 1019.4
20260901043214 70 134 0.0 0.0 0.00 0.00 0.00 99 1019.5
20260901042714 70 134 0.0 0.0 0.00 0.00 0.00 99 1019.4
20260901042209 70 134 0.0 0.0 0.00 0.00 0.00 99 1019.3
20260901041705 70 134 0.0 0.0 0.00 0.00 0.00 99 1019.5
20260901041204 70 134 0.0 0.0 0.00 0.00 0.00 99 1019.4
20260901040659 70 134 0.0 0.0 0.00 0.00 0.00 99 1019.5
20260901040158 70 134 0.0 0.0 0.00 0.00 0.00 99 1019.6
20260901035657 70 134 0.0 0.0 0.00 0.31 0.31 99 1019.5
20260901035156 70 134 0.0 0.0 0.00 0.31 0.31 99 1019.6
20260901034650 70 134 0.0 0.0 0.00 0.31 0.31 99 1019.6
20260901034144 70 134 0.0 0.0 0.00 0.31 0.31 99 1019.7
20260901033643 70 134 0.0 0.0 0.00 0.31 0.31 99 1019.7
20260901033138 70 134 0.0 0.0 0.00 0.31 0.31 99 1019.8
20260901032636 70 134 0.0 0.0 0.00 0.31 0.31 99 1020.0
20260901032131 70 134 0.0 0.0 0.00 0.31 0.31 99 1020.1
20260901031627 71 134 0.0 0.0 0.00 0.31 0.31 99 1020.0
20260901031123 71 134 0.0 0.0 0.00 0.31 0.31 99 1020.1
20260901030622 71 134 0.0 0.0 0.00 0.31 0.31 99 1020.2
20260901030117 71 134 0.0 0.0 0.00 0.31 0.31 99 1020.3
20260901025612 71 134 0.0 0.0 0.00 0.31 0.31 99 1020.1
20260901025106 71 134 0.0 0.0 0.00 0.31 0.31 99 1020.0
20260901024601 71 134 0.0 0.0 0.00 0.31 0.31 99 1020.2
20260901024100 71 134 0.0 0.0 0.00 0.31 0.31 99 1020.3
20260901023559 71 134 0.0 0.0 0.00 0.31 0.31 99 1020.2
20260901023054 71 134 0.0 0.0 0.00 0.31 0.31 99 1020.2
20260901022549 72 134 0.0 0.0 0.00 0.31 0.31 99 1020.2
20260901022045 72 134 0.0 0.0 0.00 0.31 0.31 99 1020.3
20260901021540 72 134 0.0 0.0 0.00 0.31 0.31 99 1020.2
20260901021035 72 134 0.0 0.0 0.00 0.31 0.31 99 1020.1
20260901020531 72 134 0.0 0.0 0.00 0.31 0.31 99 1020.3
20260901020026 72 134 0.0 0.0 0.00 0.31 0.31 99 1020.2
20260901015521 72 134 0.0 0.0 0.00 0.31 0.31 99 1020.1
20260901015021 73 134 0.0 0.0 0.00 0.31 0.31 99 1020.1
20260901014517 73 134 0.0 0.0 0.00 0.31 0.31 99 1019.9
20260901014013 73 134 0.0 0.0 0.00 0.31 0.31 99 1020.0
20260901013508 73 134 0.0 0.0 0.00 0.31 0.31 99 1019.9
20260901013004 73 134 0.0 0.0 0.00 0.31 0.31 99 1019.8
20260901012503 73 134 0.0 0.0 0.00 0.31 0.31 99 1019.6
20260901011959 73 134 0.0 0.0 0.00 0.31 0.31 99 1019.6
20260901011455 73 134 0.0 0.0 0.00 0.31 0.31 99 1019.6
20260901010952 73 134 0.0 0.0 0.00 0.31 0.31 99 1019.7
20260901010447 73 134 0.0 0.0 0.00 0.31 0.31 99 1019.6
20260901005946 73 134 0.0 0.0 0.00 0.31 0.31 99 1019.6
20260901005441 73 134 0.0 0.0 0.00 0.31 0.31 99 1019.6
20260901004936 73 134 0.0 0.0 0.00 0.31 0.31 99 1019.7
20260901004436 73 134 0.0 0.0 0.00 0.31 0.31 99 1019.5
20260901003931 73 134 0.0 0.0 0.00 0.31 0.31 99 1019.4
20260901003426 73 134 0.0 0.0 0.00 0.31 0.31 99 1019.5
20260901002925 74 133 0.0 0.0 0.00 0.31 0.31 99 1019.5
20260901002424 74 133 0.0 0.0 0.00 0.31 0.31 99 1019.1
20260901001918 74 134 0.0 0.0 0.00 0.31 0.31 99 1019.1
20260901001414 74 133 0.0 0.0 0.00 0.31 0.31 99 1018.6
20260901000909 74 134 0.0 0.0 0.00 0.31 0.31 99 1019.1
20260901000405 74 134 0.0 0.0 0.00 0.31 0.31 99 1019.1
20260831235903 75 134 0.0 0.0 0.00 0.31 0.31 99 1018.9
20260831235400 75 133 0.0 0.0 0.00 0.31 0.31 99 1019.1
20260831234859 75 133 0.0 0.0 0.00 0.31 0.31 99 1019.2
20260831234354 75 133 0.0 0.0 0.00 0.31 0.31 99 1019.3
20260831233849 75 133 0.0 0.0 0.00 0.31 0.31 99 1019.1
20260831233344 75 133 0.0 0.0 0.00 0.31 0.31 98 1019.2
20260831232840 75 133 0.0 0.0 0.00 0.31 0.31 98 1019.3
20260831232336 76 134 0.0 0.0 0.00 0.31 0.31 98 1019.3
20260831231831 76 133 0.0 0.0 0.00 0.31 0.31 98 1019.5
20260831231328 76 133 0.0 0.0 0.00 0.31 0.31 97 1019.5
20260831230823 76 162 0.0 0.0 0.00 0.31 0.31 97 1019.6
20260831230318 76 170 0.0 0.0 0.00 0.31 0.31 97 1019.7
20260831225817 76 207 0.0 0.0 0.00 0.31 0.31 97 1019.5
20260831225312 77 207 0.0 0.0 0.00 0.31 0.31 96 1019.5
20260831224808 77 207 0.0 0.0 0.00 0.31 0.31 96 1019.5
20260831224302 77 208 0.0 0.0 0.00 0.31 0.31 96 1019.4
20260831223757 76 218 0.0 0.0 0.00 0.31 0.31 96 1019.3
20260831223254 76 218 0.0 0.0 0.00 0.31 0.31 97 1019.4
20260831222750 76 218 0.0 0.0 0.00 0.31 0.31 97 1019.6
20260831222245 76 217 0.0 0.0 0.00 0.31 0.31 97 1019.6
20260831221741 77 225 0.0 0.0 0.00 0.31 0.31 97 1019.7
20260831221237 77 226 0.0 0.0 0.00 0.31 0.31 96 1019.8
20260831220737 76 226 0.0 0.0 0.00 0.31 0.31 95 1019.7
20260831220232 76 226 0.0 0.0 0.00 0.31 0.31 94 1019.7
20260831215732 76 226 0.0 0.0 0.00 0.31 0.31 97 1019.9
20260831215228 75 89 0.0 0.0 0.12 0.31 0.31 97 1020.0
20260831214725 75 50 0.0 0.0 1.32 0.31 0.31 97 1020.0
20260831214222 75 226 0.0 0.0 1.61 0.27 0.27 96 1020.6
20260831213717 76 246 0.0 1.0 0.47 0.08 0.08 94 1020.6
20260831213213 79 325 1.0 7.0 0.00 0.00 0.00 88 1020.3
20260831212709 79 295 0.0 4.0 0.00 0.00 0.00 89 1020.3
20260831212205 80 240 0.0 0.0 0.00 0.00 0.00 89 1019.7
20260831211704 80 240 0.0 0.0 0.00 0.00 0.00 88 1019.8
20260831211159 80 240 0.0 0.0 0.00 0.00 0.00 88 1019.7
20260831210659 80 240 0.0 0.0 0.00 0.00 0.00 87 1019.7
20260831210155 81 240 0.0 0.0 0.00 0.00 0.00 87 1019.7
20260831205654 82 240 0.0 0.0 0.00 0.00 0.00 86 1019.7
20260831205151 82 240 0.0 0.0 0.00 0.00 0.00 86 1019.7
20260831204650 82 240 0.0 0.0 0.00 0.00 0.00 84 1019.6
20260831204149 83 240 0.0 0.0 0.00 0.00 0.00 82 1019.4
20260831203644 83 240 0.0 0.0 0.00 0.00 0.00 78 1019.5
20260831203143 84 238 0.0 0.0 0.00 0.00 0.00 77 1019.8
20260831202642 84 252 0.0 0.0 0.00 0.00 0.00 76 1019.7
20260831202137 85 241 0.0 0.0 0.00 0.00 0.00 74 1019.6
20260831201636 86 252 0.0 0.0 0.00 0.00 0.00 73 1019.6
20260831201131 86 254 0.0 0.0 0.00 0.00 0.00 74 1019.8
20260831200627 86 260 0.0 0.0 0.00 0.00 0.00 72 1019.8
20260831200121 88 268 0.0 0.0 0.00 0.00 0.00 69 1019.7
20260831195617 88 258 0.0 0.0 0.00 0.00 0.00 68 1019.6
20260831195112 88 196 0.0 1.0 0.00 0.00 0.00 67 1019.7
20260831194607 89 196 0.0 0.0 0.00 0.00 0.00 68 1019.8
20260831194101 88 272 0.0 0.0 0.00 0.00 0.00 68 1020.0
20260831193557 88 307 0.0 0.0 0.00 0.00 0.00 69 1019.9
20260831193057 87 314 0.0 0.0 0.00 0.00 0.00 69 1019.8
20260831192552 88 233 0.0 0.0 0.00 0.00 0.00 69 1020.0
20260831192047 89 288 0.0 0.0 0.00 0.00 0.00 66 1020.0
20260831191543 89 252 0.0 0.0 0.00 0.00 0.00 68 1020.0
20260831191039 87 293 0.0 1.0 0.00 0.00 0.00 71 1020.1
20260831190535 87 242 1.0 1.0 0.00 0.00 0.00 71 1020.2
20260831190033 88 355 0.0 0.0 0.00 0.00 0.00 68 1020.2
20260831185529 87 253 0.0 0.0 0.00 0.00 0.00 69 1020.4
20260831185024 87 252 0.0 0.0 0.00 0.00 0.00 69 1020.4
20260831184518 88 298 0.0 0.0 0.00 0.00 0.00 72 1020.5
20260831184014 87 252 0.0 2.0 0.00 0.00 0.00 72 1020.6
20260831183513 87 215 0.0 0.0 0.00 0.00 0.00 71 1020.5
20260831183013 87 149 0.0 0.0 0.00 0.00 0.00 72 1020.6
20260831182507 87 303 0.0 0.0 0.00 0.00 0.00 73 1020.5
20260831182003 86 246 0.0 0.0 0.00 0.00 0.00 73 1020.7
20260831181458 87 252 0.0 0.0 0.00 0.00 0.00 72 1020.6
20260831180953 86 250 0.0 0.0 0.00 0.00 0.00 73 1020.8
20260831180453 85 252 0.0 0.0 0.00 0.00 0.00 72 1020.8
20260831175952 86 288 0.0 1.0 0.00 0.00 0.00 73 1020.7
20260831175449 85 244 0.0 0.0 0.00 0.00 0.00 72 1020.9
20260831174944 85 236 0.0 0.0 0.00 0.00 0.00 74 1021.1
20260831174440 84 251 0.0 1.0 0.00 0.00 0.00 76 1021.0
20260831173938 85 304 0.0 0.0 0.00 0.00 0.00 74 1021.2
20260831173437 84 253 0.0 0.0 0.00 0.00 0.00 75 1021.1
20260831172933 84 251 0.0 0.0 0.00 0.00 0.00 77 1021.0
20260831172429 84 172 0.0 0.0 0.00 0.00 0.00 78 1021.2
20260831171929 84 245 0.0 0.0 0.00 0.00 0.00 75 1021.2
20260831171425 83 255 0.0 0.0 0.00 0.00 0.00 76 1021.3
20260831170922 83 277 0.0 0.0 0.00 0.00 0.00 81 1021.3
20260831170418 83 254 0.0 0.0 0.00 0.00 0.00 78 1021.3
20260831165914 83 293 0.0 0.0 0.00 0.00 0.00 79 1021.3
20260831165410 82 210 0.0 0.0 0.00 0.00 0.00 79 1021.4
20260831164906 82 244 0.0 0.0 0.00 0.00 0.00 79 1021.4
20260831164402 82 300 0.0 0.0 0.00 0.00 0.00 80 1021.2
20260831163857 81 248 0.0 0.0 0.00 0.00 0.00 81 1021.1
20260831163353 81 302 0.0 0.0 0.00 0.00 0.00 82 1021.3
20260831162851 80 277 0.0 0.0 0.00 0.00 0.00 82 1021.4
20260831162347 80 304 0.0 0.0 0.00 0.00 0.00 81 1021.5
20260831161845 80 198 0.0 0.0 0.00 0.00 0.00 82 1021.6
20260831161342 80 243 0.0 0.0 0.00 0.00 0.00 82 1021.5
20260831160837 79 268 0.0 0.0 0.00 0.00 0.00 83 1021.4
20260831160337 79 200 0.0 0.0 0.00 0.00 0.00 85 1021.5
20260831155833 79 51 0.0 0.0 0.00 0.00 0.00 86 1021.6
20260831155332 78 243 0.0 0.0 0.00 0.00 0.00 87 1021.5
20260831154828 77 52 0.0 0.0 0.00 0.00 0.00 89 1021.4
20260831154325 77 51 0.0 0.0 0.00 0.00 0.00 91 1021.6
20260831153823 76 209 0.0 0.0 0.00 0.00 0.00 92 1021.7
20260831153319 75 282 0.0 0.0 0.00 0.00 0.00 92 1021.6
20260831152815 75 177 0.0 0.0 0.00 0.00 0.00 93 1021.7
20260831152310 75 305 0.0 0.0 0.00 0.00 0.00 93 1021.6
20260831151805 74 27 0.0 0.0 0.00 0.00 0.00 94 1021.5
20260831151304 74 27 0.0 0.0 0.00 0.00 0.00 94 1021.5
20260831150800 74 26 0.0 0.0 0.00 0.00 0.00 94 1021.7
20260831150255 74 255 0.0 0.0 0.00 0.00 0.00 94 1021.6